[[{"header":{"parameterUnit":"m.s-1","parameterCategory":1,"la1":30.2991,"la2":30.254,"lo1":-89.0895,"lo2":-89.0444,"dy":0.0017,"dx":0.0017,"nx":28,"ny":28,"refTime":"2023-04-03T21:00:00:Z","depth":0,"parameterNumber":2,"parameterNumberName":"U-component_of_WINDS"},"data":[0,0,0,0,0,0,0,0,0,0,0,0,0,0,0,0,0,0,0,0,0,0,0,0,0,0,0,0,0,0,0,0,0,0,0,0,0,0,0,0,0,0,0,0,0,0,0,0,0,0,0,0,0,0,0,0,0,0,-3.5868,-3.587,0,-3.5986,-3.5988,-3.5989,-3.6015,-3.6015,-3.6014,-3.6013,-3.6134,-3.6138,-3.6142,0,0,0,0,0,0,0,0,0,0,0,0,0,-3.5666,-3.5669,-3.5868,-3.587,-3.5871,-3.5986,-3.5988,-3.5989,-3.6016,-3.6015,-3.6014,-3.6013,-3.6133,-3.6137,-3.6142,0,0,0,0,0,0,0,0,0,0,0,0,0,-3.5766,-3.5671,-3.5868,-3.5898,-3.5902,-3.5986,-3.5988,-3.599,-3.6016,-3.6015,-3.6013,-3.6012,-3.6131,-3.6137,-3.6143,-3.6205,0,0,-3.6161,-3.6164,0,0,0,0,0,0,0,0,-3.576,-3.5773,-3.5892,-3.5896,-3.5901,-3.5985,-3.5961,-3.6062,-3.6016,-3.5973,-3.6013,-3.6012,-3.6085,-3.6095,-3.612,-3.6211,-3.6216,-3.6162,-3.6165,-3.6168,-3.617,0,0,0,0,0,0,0,-3.5753,-3.5768,-3.5915,-3.5894,-3.5899,-3.5906,-3.5919,-3.598,-3.6035,-3.5976,-3.5979,-3.5992,-3.6087,-3.6114,-3.6123,-3.6218,-3.6161,-3.6167,-3.6171,-3.6173,-3.6365,-3.6367,0,0,0,0,0,0,-3.5741,-3.5762,-3.5911,-3.5919,-3.5826,-3.5911,-3.5925,-3.5959,-3.6034,-3.6044,-3.5993,-3.5993,-3.6104,-3.6116,-3.6127,-3.6204,-3.6168,-3.6173,-3.6177,-3.6364,-3.6366,-3.6367,0,0,0,0,0,0,-3.5736,-3.5754,-3.5906,-3.5841,-3.5861,-3.5915,-3.5954,-3.5962,-3.5989,-3.6047,-3.6057,-3.601,-3.6104,-3.6119,-3.6185,-3.6209,-3.6176,-3.6182,-3.6362,-3.6364,-3.6367,-3.6359,0,0,0,0,0,0,-3.5731,-3.5752,-3.5776,-3.5841,-3.5864,-3.5962,-3.5955,-3.5965,-3.5999,-3.6,-3.6065,-3.6075,-3.6104,-3.6176,-3.6191,-3.6217,-3.6186,-3.636,-3.6363,-3.6366,-3.6358,-3.6361,-3.6364,0,0,0,0,0,-3.5723,-3.5769,-3.5777,-3.5795,-3.5895,-3.5964,-3.5977,-3.6009,-3.6001,-3.6025,-3.6063,-3.6073,-3.6205,-3.6183,-3.62,-3.6228,-3.6359,-3.6362,-3.6366,-3.6356,-3.6361,-3.6364,0,0,0,0,0,0,-3.5705,-3.5778,-3.5788,-3.5857,-3.5904,-3.5968,-3.6,-3.6013,-3.6063,-3.6062,-3.61,-3.6115,-3.6179,-3.621,-3.6185,-3.6292,-3.6281,-3.6288,-3.6268,-3.6273,-3.6276,-3.6266,-3.6191,0,0,0,0,0,-3.5709,-3.5758,-3.582,-3.5875,-3.5898,-3.5945,-3.5976,-3.5997,-3.6047,-3.6067,-3.6109,-3.6158,-3.621,-3.6244,-3.6295,-3.6363,-3.6378,-3.6391,-3.6394,-3.6396,-3.6401,-3.6439,-3.6446,-3.6379,-3.6378,-3.6378,0,0,-3.5718,-3.5764,-3.5793,-3.5872,-3.5911,-3.5961,-3.5961,-3.6014,-3.6052,-3.6075,-3.614,-3.6173,-3.623,-3.6297,-3.6329,-3.6326,-3.6423,-3.6401,-3.6402,-3.6406,-3.6443,-3.645,-3.6455,-3.6381,-3.638,-3.638,0,0,-3.5759,-3.58,-3.5849,-3.5888,-3.5948,-3.5979,-3.5991,-3.6053,-3.6076,-3.6142,-3.6161,-3.6206,-3.6296,-3.6335,-3.6367,-3.6424,-3.6435,-3.644,-3.6456,-3.6492,-3.6498,-3.6503,-3.6522,-3.6529,-3.6445,-3.6445,-3.6445,0,-3.5762,-3.5838,-3.5873,-3.5925,-3.5959,-3.5984,-3.6034,-3.6071,-3.6144,-3.6167,-3.6162,-3.6275,-3.6315,-3.6391,-3.6405,-3.6431,-3.6445,-3.6432,-3.6494,-3.6499,-3.6504,-3.6523,-3.6531,-3.6445,-3.6445,-3.6445,-3.6445,0,-3.5839,-3.5891,-3.5925,-3.5994,-3.6032,-3.6083,-3.6126,-3.6161,-3.6179,-3.6211,-3.6278,-3.6327,-3.6389,-3.6409,-3.6427,-3.6489,-3.6484,-3.6487,-3.6476,-3.651,-3.6529,-3.6536,-3.6446,-3.6446,-3.6445,-3.6445,0,0,-3.587,-3.5959,-3.5971,-3.6002,-3.607,-3.6111,-3.6164,-3.6224,-3.6253,-3.6303,-3.6347,-3.6423,-3.6425,-3.6461,-3.6485,-3.6517,-3.6558,-3.6516,-3.6517,-3.652,-3.6628,-3.6625,-3.6632,-3.6567,-3.6569,-3.657,-3.6623,0,-3.5919,-3.6012,-3.6046,-3.6123,-3.6172,-3.6196,-3.6242,-3.6288,-3.632,-3.6366,-3.6401,-3.6453,-3.6453,-3.6475,-3.6508,-3.6546,-3.658,-3.6543,-3.6608,-3.661,-3.6591,-3.6642,-3.6639,-3.6686,-3.663,-3.6632,-3.6633,0,-3.5987,-3.6038,-3.6119,-3.6181,-3.6203,-3.6243,-3.6301,-3.6345,-3.6398,-3.6419,-3.646,-3.6481,-3.6537,-3.6525,-3.6603,-3.6577,-3.6606,-3.6628,-3.6631,-3.6637,-3.6622,-3.6648,-3.6703,-3.6709,-3.6644,-3.6644,-3.6643,0,-3.6,-3.6089,-3.6149,-3.6176,-3.625,-3.6277,-3.6309,-3.6362,-3.6396,-3.6447,-3.6469,-3.6526,-3.6557,-3.6601,-3.6637,-3.6625,-3.6711,-3.6702,-3.6729,-3.6728,-3.6745,-3.6743,-3.6803,-3.6766,-3.6766,-3.6766,-3.6766,0,-3.6049,-3.6098,-3.6156,-3.6193,-3.6249,-3.6287,-3.6341,-3.6375,-3.6421,-3.6465,-3.6491,-3.6532,-3.6578,-3.6625,-3.6654,-3.6713,-3.6727,-3.6745,-3.6752,-3.6742,-3.6739,-3.676,-3.6757,-3.6768,-3.6767,-3.6767,-3.6767,0,-3.6072,-3.6113,-3.618,-3.6245,-3.6262,-3.63,-3.6355,-3.6392,-3.6426,-3.6481,-3.6496,-3.6548,-3.6605,-3.6646,-3.6719,-3.6739,-3.6802,-3.6809,-3.6783,-3.6786,-3.681,-3.6807,-3.6884,-3.6896,-3.6853,-3.6853,-3.6853,0,-3.61,-3.6138,-3.6207,-3.6238,-3.627,-3.632,-3.6355,-3.6395,-3.643,-3.6495,-3.6524,-3.6582,-3.6631,-3.672,-3.6765,-3.6821,-3.6829,-3.6852,-3.6837,-3.6826,-3.6828,-3.6824,-3.6828,-3.6854,-3.6854,-3.6854,-3.6854,0,-3.6145,-3.6164,-3.6213,-3.6269,-3.631,-3.6357,-3.6404,-3.6428,-3.6477,-3.6515,-3.6573,-3.6611,-3.6686,-3.6743,-3.6804,-3.6838,-3.6854,-3.6859,-3.6868,-3.6857,-3.684,-3.6848,-3.6787,-3.6857,-3.6856,-3.6856,-3.6856,-3.6856,-3.6171,-3.6206,-3.6259,-3.6313,-3.6353,-3.6396,-3.6434,-3.6472,-3.6521,-3.6585,-3.6606,-3.6666,-3.6719,-3.6802,-3.6836,-3.6884,-3.6883,-3.6896,-3.6899,-3.6902,-3.69,-3.6834,-3.6895,-3.6895,-3.6895,-3.6895,-3.6895,0,-3.6216,-3.6252,-3.6301,-3.6366,-3.6409,-3.6421,-3.6474,-3.6508,-3.6561,-3.6609,-3.6656,-3.6723,-3.6779,-3.6829,-3.6887,-3.6916,-3.6925,-3.6929,-3.6927,-3.6934,-3.6898,-3.6884,-3.6921,-3.6921,-3.6921,-3.6921,-3.6921,-3.6921,-3.6244,-3.6303,-3.6328,-3.6408,-3.6444,-3.6502,-3.6531,-3.6571,-3.661,-3.6683,-3.673,-3.6762,-3.681,-3.6872,-3.6925,-3.6938,-3.6957,-3.696,-3.6975,-3.694,-3.6937,-3.6934,-3.692,-3.6965,-3.6965,-3.7007,-3.7007,-3.7007]},{"header":{"parameterUnit":"m.s-1","parameterCategory":1,"la1":30.2991,"la2":30.254,"lo1":-89.0895,"lo2":-89.0444,"dy":0.0017,"dx":0.0017,"nx":28,"ny":28,"refTime":"2023-04-03T21:00:00:Z","depth":0,"parameterNumber":3,"parameterNumberName":"V-component_of_WINDS"},"data":[0,0,0,0,0,0,0,0,0,0,0,0,0,0,0,0,0,0,0,0,0,0,0,0,0,0,0,0,0,0,0,0,0,0,0,0,0,0,0,0,0,0,0,0,0,0,0,0,0,0,0,0,0,0,0,0,0,0,5.0089,5.009,0,5.0205,5.0207,5.0208,5.0211,5.021,5.0208,5.0207,5.0323,5.0328,5.0332,0,0,0,0,0,0,0,0,0,0,0,0,0,4.987,4.9874,5.0089,5.0091,5.0092,5.0205,5.0207,5.0208,5.0211,5.021,5.0208,5.0206,5.0322,5.0327,5.0332,0,0,0,0,0,0,0,0,0,0,0,0,0,4.9973,4.9875,5.0089,5.0107,5.011,5.0205,5.0207,5.0209,5.0212,5.021,5.0208,5.0206,5.032,5.0326,5.0333,5.0416,0,0,5.0353,5.0356,0,0,0,0,0,0,0,0,4.9967,4.9981,5.0103,5.0106,5.011,5.0192,5.0172,5.0278,5.0212,5.0173,5.0207,5.0205,5.0281,5.0291,5.0317,5.0422,5.0427,5.0354,5.0358,5.0361,5.0363,0,0,0,0,0,0,0,4.996,4.9976,5.0135,5.0105,5.0109,5.011,5.0122,5.0192,5.0237,5.0176,5.0177,5.0191,5.0282,5.0311,5.032,5.0429,5.0354,5.036,5.0364,5.0366,5.0611,5.0613,0,0,0,0,0,0,4.9949,4.997,5.0131,5.0139,5.0032,5.0115,5.0129,5.0167,5.0237,5.0245,5.0192,5.019,5.03,5.0312,5.0324,5.0429,5.0361,5.0367,5.0371,5.0609,5.0612,5.0614,0,0,0,0,0,0,4.9945,4.9964,5.0127,5.0055,5.0075,5.0121,5.0164,5.0171,5.0199,5.0249,5.0257,5.0213,5.0299,5.0315,5.0394,5.0433,5.037,5.0376,5.0606,5.061,5.0613,5.0637,0,0,0,0,0,0,4.9938,4.9962,4.9994,5.0055,5.0079,5.0195,5.0167,5.0175,5.0211,5.021,5.027,5.0278,5.0299,5.0385,5.0401,5.0441,5.0381,5.0602,5.0607,5.0612,5.0633,5.0641,5.0648,0,0,0,0,0,4.9931,4.9995,4.9996,5.0015,5.012,5.0198,5.0211,5.0234,5.0214,5.0247,5.0279,5.0277,5.0426,5.0393,5.0411,5.0453,5.06,5.0606,5.0611,5.063,5.0639,5.0648,0,0,0,0,0,0,4.9935,5.0003,5.0005,5.0091,5.0139,5.0198,5.024,5.0243,5.0297,5.0293,5.0318,5.0332,5.0412,5.044,5.0402,5.0539,5.051,5.052,5.0518,5.0528,5.0535,5.0527,5.0387,0,0,0,0,0,4.9946,5.0004,5.006,5.013,5.0155,5.0193,5.0227,5.0241,5.0291,5.0311,5.0349,5.0397,5.0456,5.0493,5.0549,5.0637,5.0651,5.0675,5.0683,5.0689,5.0697,5.0749,5.0761,5.0633,5.0633,5.0633,0,0,4.997,5.0014,5.0048,5.0133,5.0171,5.0231,5.021,5.0273,5.0317,5.032,5.0399,5.0429,5.0484,5.057,5.0609,5.0596,5.0736,5.0696,5.07,5.0706,5.0756,5.0768,5.0779,5.0637,5.0636,5.0636,0,0,5.0043,5.0082,5.0146,5.0186,5.0246,5.0271,5.0287,5.0347,5.0367,5.0447,5.0452,5.0505,5.0603,5.0644,5.0677,5.0769,5.077,5.0787,5.0826,5.0876,5.0886,5.0895,5.093,5.0942,5.0795,5.0795,5.0795,0,5.0064,5.0154,5.0178,5.0243,5.0281,5.0288,5.0354,5.0391,5.0466,5.0492,5.0476,5.0603,5.064,5.0737,5.076,5.0785,5.0805,5.078,5.0883,5.0892,5.0901,5.0935,5.0948,5.0796,5.0796,5.0796,5.0796,0,5.0179,5.0241,5.0286,5.036,5.0403,5.0467,5.0502,5.0542,5.0553,5.0581,5.0663,5.0709,5.0776,5.0799,5.0809,5.0898,5.0888,5.0878,5.0849,5.0915,5.0947,5.096,5.0799,5.0798,5.0798,5.0797,0,0,5.0257,5.0346,5.0362,5.0397,5.0464,5.0513,5.0579,5.0646,5.0681,5.0732,5.0789,5.0874,5.0866,5.0904,5.0918,5.0962,5.1035,5.0947,5.0948,5.0963,5.1139,5.1147,5.1162,5.1036,5.1038,5.104,5.1135,0,5.0339,5.0457,5.0482,5.0584,5.0644,5.0653,5.0711,5.0759,5.0787,5.0841,5.0872,5.0933,5.0916,5.094,5.0983,5.1017,5.1071,5.1011,5.109,5.1092,5.1077,5.1178,5.1187,5.1273,5.1147,5.1149,5.1151,0,5.045,5.0507,5.0615,5.0678,5.0704,5.0755,5.082,5.0872,5.0927,5.0945,5.0989,5.1,5.107,5.1038,5.1135,5.1094,5.1127,5.1149,5.1153,5.1162,5.1126,5.1191,5.1301,5.1315,5.117,5.1169,5.1167,0,5.0499,5.0602,5.0681,5.0711,5.0785,5.0821,5.0854,5.0907,5.0947,5.1003,5.103,5.1093,5.1128,5.1177,5.1205,5.1179,5.1301,5.1271,5.1319,5.1318,5.1344,5.1342,5.1463,5.1364,5.1363,5.1363,5.1363,0,5.0589,5.0655,5.0705,5.0753,5.0829,5.0858,5.0931,5.0964,5.1012,5.1067,5.1079,5.1131,5.1164,5.1221,5.1243,5.1322,5.1337,5.1354,5.1359,5.1354,5.1352,5.1377,5.1372,5.1367,5.1366,5.1365,5.1365,0,5.0656,5.0692,5.0779,5.0843,5.0861,5.0914,5.0969,5.1018,5.1047,5.1117,5.1136,5.1181,5.1249,5.1282,5.1366,5.1381,5.1471,5.1471,5.1453,5.1455,5.1502,5.1497,5.1643,5.1665,5.155,5.1551,5.1552,0,5.0712,5.0764,5.0835,5.0873,5.0908,5.0969,5.1011,5.1041,5.1084,5.1153,5.1193,5.1262,5.1319,5.1427,5.1467,5.1532,5.1536,5.1582,5.1545,5.1539,5.1539,5.1536,5.1542,5.1589,5.159,5.1591,5.1592,0,5.0808,5.0823,5.0883,5.095,5.0999,5.1053,5.1105,5.1136,5.1176,5.1223,5.1294,5.1338,5.1425,5.1494,5.1562,5.1596,5.1601,5.1603,5.1618,5.1614,5.1602,5.1611,5.1473,5.16,5.1599,5.1598,5.1598,5.1598,5.0872,5.092,5.0978,5.1045,5.1088,5.1138,5.1188,5.1224,5.1284,5.1358,5.1372,5.1448,5.1504,5.1597,5.1633,5.1693,5.1682,5.1703,5.1709,5.1714,5.1717,5.1591,5.1705,5.1705,5.1705,5.1704,5.1704,0,5.0971,5.1009,5.107,5.1145,5.1198,5.12,5.1259,5.1303,5.137,5.1422,5.1479,5.1561,5.1629,5.1676,5.1745,5.1784,5.1788,5.1801,5.1799,5.1807,5.1722,5.1703,5.1796,5.1796,5.1796,5.1796,5.1796,5.1796,5.1028,5.111,5.1133,5.1237,5.1275,5.135,5.1384,5.1431,5.1473,5.1565,5.1622,5.1653,5.1704,5.1777,5.1839,5.1852,5.1877,5.189,5.1903,5.1822,5.1813,5.1803,5.1786,5.1895,5.1895,5.1983,5.1984,5.1985]}]]